Date_and_time,latitude,longitude,wind_speed,RelWindDirFrom,WindDirFrom,air_pressure,air_temperature,relative_humidity,Temp,platform_speed_wrt_ground,air_pressure_at_mean_sea_level,platform_orientation
2018-11-10 23:40,50.6304433333333,-96.98077,9.8,12.1,179,990.94,-8.0,68,1.40,0.0,1019.67,360.0
2018-11-10 23:50,50.6304433333333,-96.98077,8.8,10.4,178,990.94,-8.1,68,1.40,0.0,1019.68,360.0
2018-11-11 00:00,50.6304433333333,-96.98077,8.3,10.3,177,990.92,-8.1,69,1.40,0.0,1019.67,360.0
2018-11-11 00:00,50.6304433333333,-96.98077,8.3,8.3,186,990.88,-8.1,70,1.39,0.0,1019.64,311.7
2018-11-11 00:10,50.6304416666667,-96.98077,8.6,10.3,177,990.86,-8.2,70,1.39,0.0,1019.64,311.7
2018-11-11 00:20,50.6304583333333,-96.9807716666667,8.5,11.0,179,990.86,-8.2,71,1.39,0.0,1019.65,311.7
2018-11-11 00:30,50.6304483333333,-96.980775,8.3,10.0,179,990.87,-8.3,72,1.39,0.0,1019.67,311.7
2018-11-11 00:40,50.6304466666667,-96.9807783333333,8.4,10.5,181,990.85,-8.4,73,1.39,0.0,1019.66,311.7
2018-11-11 00:50,50.6304416666667,-96.98078,8.8,11.4,182,990.84,-8.4,74,1.39,0.0,1019.65,311.7
2018-11-11 01:00,50.630445,-96.9807783333333,9.6,12.2,180,990.80,-8.4,76,1.39,0.0,1019.62,270.0
2018-11-11 01:10,50.6304433333333,-96.98078,9.6,12.3,180,990.81,-8.4,77,1.39,0.0,1019.63,270.0
2018-11-11 01:20,50.6304433333333,-96.9807766666667,9.2,11.7,182,990.81,-8.5,79,1.38,0.0,1019.64,270.0
2018-11-11 01:30,50.630445,-96.9807783333333,9.0,11.1,184,990.84,-8.6,82,1.38,0.0,1019.68,270.0
2018-11-11 01:40,50.630445,-96.9807766666667,9.1,10.8,181,990.76,-8.6,84,1.38,0.0,1019.61,270.0
2018-11-11 01:50,50.630445,-96.9807733333333,9.0,12.3,179,990.75,-8.7,86,1.39,0.0,1019.60,270.0
2018-11-11 02:00,50.630445,-96.9807733333333,9.8,11.6,177,990.67,-8.7,86,1.39,0.0,1019.52,270.0
2018-11-11 02:10,50.6304433333333,-96.9807733333333,9.4,11.8,179,990.61,-8.7,86,1.38,0.0,1019.46,270.0
2018-11-11 02:20,50.630425,-96.980765,9.4,11.3,179,990.48,-8.8,87,1.38,0.0,1019.33,270.0
2018-11-11 02:30,50.6304216666667,-96.98076,9.6,11.3,179,990.42,-8.7,86,1.38,0.0,1019.27,270.0
2018-11-11 02:40,50.63043,-96.9807633333333,9.8,11.7,180,990.37,-8.7,86,1.38,0.0,1019.22,270.0
2018-11-11 02:50,50.630445,-96.9807833333333,9.4,11.5,181,990.37,-8.8,87,1.38,0.0,1019.22,270.0
2018-11-11 03:00,50.6304433333333,-96.98078,9.1,11.8,183,990.46,-8.8,87,1.37,0.0,1019.32,270.0
2018-11-11 03:10,50.6304316666667,-96.98078,8.8,11.3,182,990.51,-8.8,87,1.37,0.0,1019.38,270.0
2018-11-11 03:20,50.6304333333333,-96.9807766666667,8.3,10.2,182,990.52,-8.9,88,1.36,0.0,1019.40,270.0
2018-11-11 03:30,50.630435,-96.9807783333333,7.6,9.9,181,990.49,-9.0,89,1.36,0.0,1019.37,270.0
2018-11-11 03:40,50.6304366666667,-96.9807766666667,8.5,11.1,180,990.43,-9.1,90,1.36,0.0,1019.31,270.0
2018-11-11 03:50,50.6304383333333,-96.9807733333333,8.2,10.5,182,990.39,-9.1,91,1.37,0.0,1019.28,270.0
2018-11-11 04:00,50.63044,-96.980775,7.6,10.4,185,990.44,-9.1,91,1.37,0.0,1019.33,90.0
2018-11-11 04:10,50.6304416666667,-96.9807783333333,6.9,9.6,184,990.45,-9.1,92,1.38,0.0,1019.34,90.0
2018-11-11 04:20,50.6304483333333,-96.980765,6.4,8.8,190,990.46,-9.1,92,1.38,0.0,1019.35,90.0
2018-11-11 04:30,50.630445,-96.980765,6.5,8.7,185,990.47,-9.2,93,1.39,0.0,1019.37,90.0
2018-11-11 04:40,50.6304466666667,-96.9807716666667,6.1,8.0,184,990.50,-9.2,93,1.40,0.0,1019.40,90.0
2018-11-11 04:50,50.6304433333333,-96.9807766666667,5.5,7.4,192,990.57,-9.1,94,1.40,0.0,1019.46,90.0
2018-11-11 05:00,50.6304433333333,-96.9807783333333,5.2,7.1,199,990.61,-9.2,93,1.39,0.0,1019.51,270.0
2018-11-11 05:10,50.630445,-96.9807733333333,5.1,6.8,201,990.57,-9.2,93,1.38,0.0,1019.48,270.0
2018-11-11 05:20,50.6304433333333,-96.980775,5.0,7.1,199,990.60,-9.2,94,1.38,0.0,1019.52,270.0
2018-11-11 05:30,50.6304416666667,-96.980775,4.8,6.3,199,990.60,-9.3,94,1.37,0.0,1019.53,270.0
2018-11-11 05:40,50.6304416666667,-96.9807733333333,4.7,6.9,198,990.58,-9.3,94,1.35,0.0,1019.50,270.0
2018-11-11 05:50,50.6304416666667,-96.9807733333333,5.9,8.5,193,990.49,-9.3,94,1.35,0.0,1019.42,270.0
2018-11-11 06:00,50.6304416666667,-96.9807733333333,5.5,7.2,197,990.55,-9.3,95,1.34,0.0,1019.47,90.0
2018-11-11 06:10,50.6304683333333,-96.9807816666667,5.2,7.2,201,990.65,-9.5,94,1.34,0.0,1019.58,90.0
2018-11-11 06:20,50.6304416666667,-96.9807783333333,5.1,6.4,205,990.71,-9.5,94,1.33,0.0,1019.66,90.0
2018-11-11 06:30,50.6304433333333,-96.98077,5.0,6.8,208,990.82,-9.6,95,1.30,0.0,1019.78,90.0
2018-11-11 06:40,50.6304433333333,-96.9807733333333,3.7,5.4,214,990.86,-9.7,95,1.27,0.0,1019.82,90.0
2018-11-11 06:50,50.6304433333333,-96.9807766666667,4.4,5.8,214,990.85,-9.9,96,1.23,0.0,1019.82,90.0
2018-11-11 07:00,50.6304433333333,-96.9807766666667,4.6,6.3,212,990.82,-10.0,97,1.15,0.0,1019.80,90.0
2018-11-11 07:10,50.6304416666667,-96.980775,4.4,5.6,214,990.82,-10.1,97,1.13,0.0,1019.81,90.0
2018-11-11 07:20,50.63044,-96.9807733333333,3.9,5.3,219,990.78,-10.2,98,1.15,0.0,1019.77,90.0
2018-11-11 07:30,50.6304133333333,-96.9807666666667,3.6,5.0,221,990.71,-10.3,99,1.16,0.0,1019.70,90.0
2018-11-11 07:40,50.6304316666667,-96.9807666666667,3.6,5.1,214,990.70,-10.2,99,1.15,0.0,1019.70,90.0
2018-11-11 07:50,50.6304383333333,-96.9807666666667,3.8,5.4,223,990.74,-10.3,99,1.11,0.0,1019.74,90.0
2018-11-11 08:00,50.6304416666667,-96.98077,3.8,4.8,228,990.71,-10.5,99,1.10,0.0,1019.72,90.0
2018-11-11 08:10,50.6304416666667,-96.98077,3.4,4.7,232,990.74,-10.6,99,1.08,0.0,1019.76,90.0
2018-11-11 08:20,50.6304433333333,-96.98077,3.0,4.1,235,990.71,-10.6,99,1.08,0.0,1019.74,90.0
2018-11-11 08:30,50.6304433333333,-96.98077,3.3,4.4,236,990.74,-10.7,99,1.08,0.0,1019.79,90.0
2018-11-11 08:40,50.6304433333333,-96.98077,3.4,4.7,237,990.78,-10.8,99,1.08,0.0,1019.84,90.0
2018-11-11 08:50,50.6304633333333,-96.980785,3.7,5.2,236,990.78,-10.8,99,1.05,0.0,1019.85,90.0
2018-11-11 09:00,50.6304533333333,-96.98078,4.0,5.1,234,990.76,-10.8,99,1.01,0.0,1019.83,323.4
2018-11-11 09:10,50.6304483333333,-96.9807783333333,4.7,6.7,234,990.76,-10.7,99,1.00,0.0,1019.84,323.4
2018-11-11 09:20,50.63042,-96.9807966666667,5.4,7.5,231,990.80,-10.7,99,1.01,0.0,1019.88,323.4
2018-11-11 09:30,50.6304166666667,-96.9807333333333,5.5,6.7,234,990.87,-10.7,99,1.02,0.0,1019.95,323.4
2018-11-11 09:40,50.6304266666667,-96.9807366666667,5.6,6.9,232,990.91,-10.8,99,1.02,0.0,1020.00,323.4
2018-11-11 09:50,50.630435,-96.98075,5.1,6.7,232,990.95,-10.8,98,1.01,0.0,1020.05,323.4
2018-11-11 10:00,50.6304366666667,-96.980755,4.6,6.1,236,990.98,-10.7,98,1.00,0.0,1020.08,119.2
2018-11-11 10:10,50.6304383333333,-96.9807583333333,5.2,6.9,243,991.02,-10.7,98,1.01,0.0,1020.12,119.2
2018-11-11 10:20,50.6304383333333,-96.98076,5.1,6.9,241,990.99,-10.6,98,1.01,0.0,1020.09,119.2
2018-11-11 10:30,50.63044,-96.98076,5.2,6.9,241,990.98,-10.5,98,1.02,0.0,1020.08,119.2
2018-11-11 10:40,50.6304683333333,-96.9807766666667,5.1,7.0,240,990.98,-10.3,98,1.04,0.0,1020.07,119.2
2018-11-11 10:50,50.6304466666667,-96.9807716666667,4.5,6.8,245,990.98,-10.1,98,1.06,0.0,1020.06,119.2
2018-11-11 11:00,50.6304616666667,-96.9807716666667,4.7,6.3,246,991.00,-10.0,99,1.08,0.0,1020.07,360.0
2018-11-11 11:10,50.6304316666667,-96.980775,4.3,5.8,251,991.02,-9.9,99,1.09,0.0,1020.09,360.0
2018-11-11 11:20,50.630435,-96.98077,4.7,6.5,251,991.11,-9.9,99,1.09,0.0,1020.18,360.0
2018-11-11 11:30,50.6304366666667,-96.9807683333333,4.1,5.9,253,991.23,-9.8,99,1.09,0.0,1020.30,360.0
2018-11-11 11:40,50.6304383333333,-96.9807666666667,3.6,5.2,254,991.26,-9.8,99,1.09,0.0,1020.33,360.0
2018-11-11 11:50,50.6304416666667,-96.9807716666667,3.4,4.4,244,991.29,-9.8,99,1.09,0.0,1020.35,360.0
2018-11-11 12:00,50.6304516666667,-96.9807733333333,3.9,5.2,244,991.30,-9.8,99,1.09,0.0,1020.36,90.0
2018-11-11 12:10,50.63045,-96.9807733333333,3.8,5.4,251,991.35,-9.7,99,1.10,0.0,1020.41,90.0
2018-11-11 12:20,50.6304466666667,-96.9807783333333,3.8,5.1,252,991.38,-9.6,99,1.11,0.0,1020.43,90.0
2018-11-11 12:30,50.6304483333333,-96.98078,3.7,5.1,251,991.36,-9.4,99,1.12,0.0,1020.38,90.0
2018-11-11 12:40,50.6304466666667,-96.98078,3.7,5.4,252,991.32,-9.3,99,1.14,0.0,1020.33,90.0
2018-11-11 12:50,50.6304466666667,-96.9807816666667,4.2,5.8,260,991.41,-9.2,99,1.14,0.0,1020.40,90.0
2018-11-11 13:00,50.630445,-96.9807816666667,3.9,6.1,260,991.48,-9.0,99,1.11,0.0,1020.47,286.8
2018-11-11 13:10,50.6304466666667,-96.98078,4.1,6.4,266,991.56,-8.9,99,1.05,0.0,1020.54,286.8
2018-11-11 13:20,50.630445,-96.98078,4.2,7.1,267,991.67,-8.8,99,1.03,0.0,1020.64,286.8
2018-11-11 13:30,50.630445,-96.98078,4.3,6.4,268,991.76,-8.8,98,1.05,0.0,1020.73,286.8
2018-11-11 13:40,50.6304416666667,-96.9807733333333,4.3,6.5,270,991.84,-8.7,98,1.07,0.0,1020.82,286.8
2018-11-11 13:50,50.63044,-96.9807816666667,3.8,6.2,270,991.94,-8.7,97,1.08,0.0,1020.91,286.8
2018-11-11 14:00,50.630435,-96.98077,4.5,6.9,274,992.09,-8.6,97,1.09,0.0,1021.06,360.0
2018-11-11 14:10,50.6304366666667,-96.9807683333333,4.1,7.2,275,992.20,-8.5,96,1.11,0.0,1021.16,360.0
2018-11-11 14:20,50.6304383333333,-96.9807716666667,4.9,9.5,282,992.22,-8.4,95,1.12,0.0,1021.16,360.0
2018-11-11 14:30,50.6304316666667,-96.9807783333333,5.5,8.8,279,992.32,-8.3,93,1.13,0.0,1021.26,360.0
2018-11-11 14:40,50.63043,-96.980795,6.5,9.2,286,992.43,-8.3,92,1.14,0.0,1021.35,360.0
2018-11-11 14:50,50.630435,-96.9807816666667,6.4,9.6,288,992.53,-8.2,91,1.15,0.0,1021.45,360.0
2018-11-11 15:00,50.6304366666667,-96.9807833333333,5.4,8.9,286,992.59,-8.1,91,1.15,0.0,1021.50,183.2
2018-11-11 15:10,50.6304533333333,-96.980735,6.0,9.9,285,992.57,-8.0,91,1.10,0.0,1021.47,183.2
2018-11-11 15:20,50.6304283333333,-96.9807716666667,6.8,10.4,284,992.64,-7.9,90,1.08,0.0,1021.53,183.2
2018-11-11 15:30,50.6304416666667,-96.98079,5.5,9.0,283,992.78,-7.8,90,1.10,0.0,1021.66,183.2
2018-11-11 15:40,50.6304433333333,-96.9807783333333,7.1,12.0,286,992.86,-7.7,90,1.12,0.0,1021.74,183.2
2018-11-11 15:50,50.6304433333333,-96.9807616666667,6.7,11.0,286,992.94,-7.6,90,1.11,0.0,1021.82,183.2
2018-11-11 16:00,50.6304333333333,-96.9807666666667,5.5,8.9,285,992.99,-7.5,89,1.09,0.0,1021.86,124.8
2018-11-11 16:10,50.63044,-96.9807666666667,7.4,11.6,286,993.04,-7.4,89,1.09,0.0,1021.90,124.8
2018-11-11 16:20,50.6304383333333,-96.9807766666667,7.5,11.6,292,993.09,-7.2,88,1.10,0.0,1021.93,124.8
2018-11-11 16:30,50.6304516666667,-96.9807833333333,6.9,11.3,289,993.18,-7.0,89,1.11,0.0,1022.01,124.8
2018-11-11 16:40,50.630455,-96.9807766666667,8.1,12.6,285,993.26,-6.9,89,1.13,0.0,1022.09,124.8
2018-11-11 16:50,50.630455,-96.980775,7.9,12.8,292,993.36,-6.7,89,1.15,0.0,1022.18,124.8
2018-11-11 17:00,50.6304516666667,-96.9807733333333,9.0,14.2,294,993.45,-6.6,88,1.17,0.0,1022.25,360.0
2018-11-11 17:10,50.63045,-96.9807733333333,9.1,13.6,297,993.50,-6.4,86,1.20,0.0,1022.29,360.0
2018-11-11 17:20,50.6304483333333,-96.9807716666667,10.7,16.0,299,993.43,-6.3,85,1.21,0.0,1022.21,360.0
2018-11-11 17:30,50.6304466666667,-96.9807716666667,9.6,15.5,294,993.63,-6.3,85,1.23,0.0,1022.40,360.0
2018-11-11 17:40,50.6304366666667,-96.9807766666667,9.6,15.7,299,993.76,-6.3,85,1.24,0.0,1022.53,360.0
2018-11-11 17:50,50.6304566666667,-96.9807666666667,10.3,15.3,298,993.80,-6.2,84,1.25,0.0,1022.56,360.0
2018-11-11 18:00,50.6304316666667,-96.9807683333333,9.6,15.2,295,993.89,-6.2,82,1.27,0.0,1022.65,111.5
2018-11-11 18:10,50.6304383333333,-96.9807766666667,10.5,15.1,298,993.93,-6.1,80,1.28,0.0,1022.68,111.5
2018-11-11 18:20,50.6304383333333,-96.9807716666667,10.9,16.0,303,994.02,-6.2,78,1.29,0.0,1022.76,111.5
2018-11-11 18:30,50.6304366666667,-96.9807733333333,10.8,16.5,300,994.18,-6.2,78,1.31,0.0,1022.92,111.5
2018-11-11 18:40,50.6304366666667,-96.9807733333333,10.2,15.9,298,994.26,-6.1,76,1.32,0.0,1022.99,111.5
2018-11-11 18:50,50.6304383333333,-96.980775,10.8,16.4,288,994.34,-6.2,76,1.33,0.0,1023.07,111.5
2018-11-11 19:00,50.6304383333333,-96.980775,11.5,16.7,304,994.38,-6.2,76,1.34,0.0,1023.10,345.5
2018-11-11 19:10,50.63044,-96.980775,11.1,17.0,301,994.55,-6.4,74,1.35,0.0,1023.28,345.5
2018-11-11 19:20,50.63044,-96.980775,11.2,17.2,295,994.72,-6.4,75,1.36,0.0,1023.46,345.5
2018-11-11 19:30,50.63044,-96.980775,11.2,16.9,293,994.91,-6.7,72,1.37,0.0,1023.66,345.5
2018-11-11 19:40,50.6304416666667,-96.980775,11.8,19.4,296,994.98,-6.6,64,1.38,0.0,1023.73,345.5
2018-11-11 19:50,50.6304416666667,-96.980775,12.1,19.5,297,995.03,-6.7,61,1.38,0.0,1023.78,345.5
2018-11-11 20:00,50.6304416666667,-96.980775,11.0,19.7,299,995.19,-6.7,60,1.38,0.0,1023.95,360.0
2018-11-11 20:10,50.6304433333333,-96.9807733333333,11.5,19.2,306,995.31,-6.8,59,1.39,0.0,1024.07,360.0
2018-11-11 20:20,50.6304433333333,-96.9807733333333,13.1,18.7,301,995.29,-6.9,57,1.39,0.0,1024.06,360.0
2018-11-11 20:30,50.6304433333333,-96.9807733333333,12.0,18.0,298,995.34,-6.9,55,1.39,0.0,1024.11,360.0
2018-11-11 20:40,50.6304433333333,-96.9807716666667,12.0,18.7,295,995.32,-6.9,52,1.39,0.0,1024.09,360.0
2018-11-11 20:50,50.6304433333333,-96.9807716666667,12.5,20.3,301,995.35,-6.9,52,1.38,0.0,1024.13,360.0
2018-11-11 21:00,50.6304433333333,-96.98077,13.2,18.6,294,995.47,-6.9,52,1.37,0.0,1024.26,38.0
2018-11-11 21:10,50.6304433333333,-96.98077,11.3,19.0,298,995.64,-6.9,52,1.36,0.0,1024.43,38.0
2018-11-11 21:20,50.6304433333333,-96.98077,12.8,19.1,294,995.75,-6.9,51,1.37,0.0,1024.56,38.0
2018-11-11 21:30,50.630445,-96.9807683333333,13.0,22.8,301,995.91,-7.1,51,1.35,0.0,1024.73,38.0
2018-11-11 21:40,50.6304166666667,-96.9807716666667,11.7,17.9,296,996.16,-7.1,49,1.34,0.0,1025.00,38.0
2018-11-11 21:50,50.630415,-96.9807433333333,12.6,19.3,298,996.25,-7.3,49,1.32,0.0,1025.09,38.0
2018-11-11 22:00,50.630455,-96.9807716666667,9.8,14.7,300,996.60,-7.5,52,1.32,0.0,1025.47,38.0
2018-11-11 22:10,50.63045,-96.9807633333333,9.5,15.0,303,996.77,-7.5,54,1.33,0.0,1025.66,38.0
2018-11-11 22:20,50.6304516666667,-96.9807616666667,8.8,14.3,298,996.92,-7.5,55,1.34,0.0,1025.81,38.0
2018-11-11 22:30,50.63045,-96.9807616666667,10.0,15.4,296,996.97,-7.5,57,1.35,0.0,1025.86,38.0
2018-11-11 22:40,50.6304666666667,-96.98077,9.4,14.7,298,997.14,-7.6,62,1.32,0.0,1026.05,38.0
2018-11-11 22:50,50.6304583333333,-96.9807666666667,9.9,16.8,297,997.20,-7.8,67,1.29,0.0,1026.12,38.0
2018-11-11 23:00,50.6304566666667,-96.9807666666667,7.8,12.0,283,997.40,-8.1,72,1.27,0.0,1026.34,14.5
2018-11-11 23:10,50.6304533333333,-96.9807633333333,8.6,14.9,289,997.56,-8.2,72,1.24,0.0,1026.50,14.5
2018-11-11 23:20,50.6304516666667,-96.980765,8.0,11.5,285,997.72,-8.3,73,1.23,0.0,1026.68,14.5
2018-11-11 23:30,50.6304533333333,-96.980765,8.2,13.3,286,997.84,-8.3,74,1.25,0.0,1026.81,14.5
2018-11-11 23:40,50.6304533333333,-96.980765,8.6,14.7,287,997.97,-8.3,77,1.25,0.0,1026.95,14.5
